STARLINK-32337, 61643

Orbit data source: Space-Track

STARLINK-32337, 61643 is a payload satellite owned by SpaceX/Seattle (US) in LEO that was launched on Wed, 23 Oct 2024 UTC via an FALCON 9 launch vehicle from the Air Force Eastern Test Range (AFETR). Payload-class satellites include a variety of spacecraft equipped with specific instruments for various scientific and technological missions. These include communications satellites like Starlink; space stations such as the ISS; scientific satellites like the Hubble; Earth observation satellites from companies like Planet Labs, Umbra, and HawkEye 360; GPS; miniature CubeSats for education and research; and military/defense satellites.

Loading next visibility...
Identifier
61643, 2024-191Y
Orbit
LEO
Country
Flag of USUS
Related business
Manufacturer
SpaceX/Seattle
Mission
Operational Commercial Communications
Bus & Motor
STARLINK V2M, Unknown motor
Mass
730 kg wet, ~700 kg dry
Launch date (UTC)
2024-10-23 (2 years ago)
Launch vehicle
FALCON 9
Launch site
Air Force Eastern Test Range (AFETR)
Object type
Payload
Rocket body
Debris
Shape & HBR
Box + 2 Pan, 17.7 m
Radar Cross Section
33.884 m², Large (>1 m²)

Expand to show TLE details & history
Last TLE update: 11 hours ago

TLE from 11 hours ago
0 STARLINK-32337
1 61643U 24191Y   26255.99815782 -.00030249  00000-0 -10962-2 0  9996
2 61643  43.0018 176.6055 0001508 246.4798 113.5895 15.27518842106947
Epoch: 2026-09-12T23:57Z
TLE epoch observation values (Epoch: 2026-09-12T23:57:20.835Z)
Latitude
-0.00005°
Longitude
-174.73048°
Altitude
483.422 km
Speed
7.625 km/s
True Right ascension
11h 46m 25s
True Declination
0° 00' 00"
Sunlit
Object was in daylight at epoch
Visualization orbit readout
Latitude
Unknown
Longitude
Unknown
Altitude
Unknown
Speed
Unknown
Apparent Right ascension
Unknown
Apparent Declination
Unknown
Sunlit
N/A
Visualization observer readout
Local Sidereal Time
03:06:29
Azimuth
Unknown
Elevation
Unknown
Doppler factor
Unknown
Orbital elements
Apogee altitude
486.212 km
Perigee altitude
484.142 km
Semi-major axis
6,863.314 km
Eccentricity
0.00015
Inclination
43.0018°
RAAN
176.6055°
Arg. of periapsis
246.4798°
True anomaly
113.60534°
Mean anomaly
113.5895°
Eccentric anomaly
113.59742°
Mean motion
3.81718 °/min
Orbital period
94.31 mins
BSTAR
-0.0010962
Loading maneuver chart data...
Computing Atmospheric mass density...
Loading historical data...
Loading historical data...
Loading historical data...
Loading historical data...
Loading historical data...
Loading historical data...
Loading historical data...

Documentation

Showing up to 5 results
|